Time,TemperatureF,DewpointF,PressureIn,WindDirection,WindDirectionDegrees,WindSpeedMPH,WindSpeedGustMPH,Humidity,HourlyPrecipIn,Conditions,Clouds,dailyrainin,SoftwareType,DateUTC
2013-05-26 00:04:00,49.1,34.5,30.53,North,0,0.0,0.0,57,0.00,RA,OVC,0.00,WeatherDisplay:10.37,2013-05-26 05:04:00,
2013-05-26 00:09:00,49.1,34.5,30.53,North,0,0.0,0.0,57,0.00,RA,OVC,0.00,WeatherDisplay:10.37,2013-05-26 05:09:00,
2013-05-26 00:14:00,49.1,34.5,30.56,North,0,0.0,0.0,57,0.00,OVC,,0.00,WeatherDisplay:10.37,2013-05-26 05:14:00,
2013-05-26 00:19:00,48.9,34.3,30.56,North,0,0.0,0.0,57,0.00,OVC,,0.00,WeatherDisplay:10.37,2013-05-26 05:19:00,
2013-05-26 00:24:00,48.9,34.3,30.56,North,0,0.0,0.0,57,0.00,OVC,,0.00,WeatherDisplay:10.37,2013-05-26 05:24:00,
2013-05-26 00:29:00,48.9,34.3,30.53,North,0,0.0,0.0,57,0.00,OVC,,0.00,WeatherDisplay:10.37,2013-05-26 05:29:00,
2013-05-26 00:34:00,48.9,34.3,30.53,North,0,0.0,0.0,57,0.00,OVC,,0.00,WeatherDisplay:10.37,2013-05-26 05:34:00,
2013-05-26 00:39:00,48.9,34.3,30.53,North,0,0.0,0.0,57,0.00,OVC,,0.00,WeatherDisplay:10.37,2013-05-26 05:39:00,
2013-05-26 00:44:00,48.9,34.3,30.53,North,0,0.0,0.0,57,0.00,OVC,,0.00,WeatherDisplay:10.37,2013-05-26 05:44:00,
2013-05-26 00:49:00,48.9,34.3,30.53,North,0,0.0,0.0,57,0.00,OVC,,0.00,WeatherDisplay:10.37,2013-05-26 05:49:00,
2013-05-26 00:54:00,48.7,34.2,30.53,North,0,0.0,0.0,57,0.00,OVC,,0.00,WeatherDisplay:10.37,2013-05-26 05:54:00,
2013-05-26 00:59:00,48.7,34.2,30.53,North,0,0.0,0.0,57,0.00,OVC,,0.00,WeatherDisplay:10.37,2013-05-26 05:59:00,
2013-05-26 01:04:00,48.7,34.2,30.53,North,0,0.0,0.0,57,0.00,BKN,OVC,0.00,WeatherDisplay:10.37,2013-05-26 06:04:00,
2013-05-26 01:09:00,48.7,34.2,30.53,North,0,0.0,0.0,57,0.00,BKN,OVC,0.00,WeatherDisplay:10.37,2013-05-26 06:09:00,
2013-05-26 01:14:00,48.6,34.0,30.53,North,0,0.0,0.0,57,0.00,BKN,OVC,0.00,WeatherDisplay:10.37,2013-05-26 06:14:00,
2013-05-26 01:19:00,48.6,34.0,30.53,North,0,0.0,0.0,57,0.00,BKN,OVC,0.00,WeatherDisplay:10.37,2013-05-26 06:19:00,
2013-05-26 01:24:00,48.6,34.0,30.53,North,0,0.0,0.0,57,0.00,BKN,OVC,0.00,WeatherDisplay:10.37,2013-05-26 06:24:00,
2013-05-26 01:29:00,48.6,34.0,30.53,North,0,0.0,0.0,57,0.00,BKN,OVC,0.00,WeatherDisplay:10.37,2013-05-26 06:29:00,
2013-05-26 01:34:00,48.6,34.0,30.53,North,0,0.0,0.0,57,0.00,BKN,OVC,0.00,WeatherDisplay:10.37,2013-05-26 06:34:00,
2013-05-26 01:39:00,48.6,34.0,30.53,North,0,0.0,0.0,57,0.00,BKN,OVC,0.00,WeatherDisplay:10.37,2013-05-26 06:39:00,
2013-05-26 01:44:00,48.7,34.2,30.50,North,0,0.0,0.0,57,0.00,BKN,OVC,0.00,WeatherDisplay:10.37,2013-05-26 06:44:00,
2013-05-26 01:49:00,48.7,34.2,30.50,North,0,0.0,0.0,57,0.00,BKN,OVC,0.00,WeatherDisplay:10.37,2013-05-26 06:49:00,
2013-05-26 01:54:00,48.7,33.7,30.50,North,0,0.0,0.0,56,0.00,BKN,OVC,0.00,WeatherDisplay:10.37,2013-05-26 06:54:00,
2013-05-26 01:59:00,48.7,33.7,30.50,North,0,0.0,0.0,56,0.00,BKN,OVC,0.00,WeatherDisplay:10.37,2013-05-26 06:59:00,
2013-05-26 02:04:00,48.7,33.7,30.50,North,0,0.0,0.0,56,0.00,OVC,,0.00,WeatherDisplay:10.37,2013-05-26 07:04:00,
2013-05-26 02:09:00,48.9,33.9,30.50,North,0,0.0,0.0,56,0.00,OVC,,0.00,WeatherDisplay:10.37,2013-05-26 07:09:00,
2013-05-26 02:14:00,49.1,34.1,30.50,North,0,0.0,0.0,56,0.00,OVC,,0.00,WeatherDisplay:10.37,2013-05-26 07:14:00,
2013-05-26 02:19:00,49.1,34.1,30.50,North,0,0.0,0.0,56,0.00,OVC,,0.00,WeatherDisplay:10.37,2013-05-26 07:19:00,
2013-05-26 02:24:00,49.3,34.2,30.50,North,0,0.0,0.0,56,0.00,OVC,,0.00,WeatherDisplay:10.37,2013-05-26 07:24:00,
2013-05-26 02:29:00,49.3,33.8,30.50,North,0,0.0,0.0,55,0.00,OVC,,0.00,WeatherDisplay:10.37,2013-05-26 07:29:00,
2013-05-26 02:34:00,49.3,33.8,30.50,North,0,0.0,0.0,55,0.00,OVC,,0.00,WeatherDisplay:10.37,2013-05-26 07:34:00,
2013-05-26 02:39:00,49.3,33.8,30.50,North,0,0.0,0.0,55,0.00,OVC,,0.00,WeatherDisplay:10.37,2013-05-26 07:39:00,
2013-05-26 02:44:00,49.5,34.0,30.50,North,0,0.0,0.0,55,0.00,OVC,,0.00,WeatherDisplay:10.37,2013-05-26 07:44:00,
2013-05-26 02:49:00,49.5,33.5,30.50,North,0,0.0,0.0,54,0.00,OVC,,0.00,WeatherDisplay:10.37,2013-05-26 07:49:00,
2013-05-26 02:54:00,49.5,33.5,30.50,North,0,0.0,0.0,54,0.00,OVC,,0.00,WeatherDisplay:10.37,2013-05-26 07:54:00,
2013-05-26 02:59:00,49.5,33.5,30.50,North,0,0.0,0.0,54,0.00,OVC,,0.00,WeatherDisplay:10.37,2013-05-26 07:59:00,
2013-05-26 03:04:00,49.6,33.2,30.50,North,0,0.0,0.0,53,0.00,OVC,,0.00,WeatherDisplay:10.37,2013-05-26 08:04:00,
2013-05-26 03:09:00,49.6,33.2,30.50,North,0,0.0,0.0,53,0.00,OVC,,0.00,WeatherDisplay:10.37,2013-05-26 08:09:00,
2013-05-26 03:14:00,49.6,33.2,30.50,North,0,0.0,0.0,53,0.00,OVC,,0.00,WeatherDisplay:10.37,2013-05-26 08:14:00,
2013-05-26 03:19:00,49.6,32.7,30.50,North,0,0.0,0.0,52,0.00,OVC,,0.00,WeatherDisplay:10.37,2013-05-26 08:19:00,
2013-05-26 03:24:00,49.6,32.7,30.50,North,0,0.0,0.0,52,0.00,OVC,,0.00,WeatherDisplay:10.37,2013-05-26 08:24:00,
2013-05-26 03:29:00,49.8,32.9,30.50,North,0,0.0,0.0,52,0.00,OVC,,0.00,WeatherDisplay:10.37,2013-05-26 08:29:00,
2013-05-26 03:34:00,49.8,32.4,30.50,North,0,0.0,0.0,51,0.00,OVC,,0.00,WeatherDisplay:10.37,2013-05-26 08:34:00,
2013-05-26 03:39:00,49.8,32.4,30.50,North,0,0.0,0.0,51,0.00,OVC,,0.00,WeatherDisplay:10.37,2013-05-26 08:39:00,
2013-05-26 03:44:00,49.8,32.4,30.50,North,0,0.0,0.0,51,0.00,OVC,,0.00,WeatherDisplay:10.37,2013-05-26 08:44:00,
2013-05-26 03:49:00,49.8,31.9,30.50,North,0,0.0,0.0,50,0.00,OVC,,0.00,WeatherDisplay:10.37,2013-05-26 08:49:00,
2013-05-26 03:54:00,50.0,32.1,30.50,North,0,0.0,0.0,50,0.00,OVC,,0.00,WeatherDisplay:10.37,2013-05-26 08:54:00,
2013-05-26 03:59:00,50.0,31.6,30.50,North,0,0.0,0.0,49,0.00,OVC,,0.00,WeatherDisplay:10.37,2013-05-26 08:59:00,
2013-05-26 04:04:00,50.0,31.6,30.50,North,0,0.0,0.0,49,0.00,OVC,,0.00,WeatherDisplay:10.37,2013-05-26 09:04:00,
2013-05-26 04:09:00,50.0,31.6,30.50,North,0,0.0,0.0,49,0.00,OVC,,0.00,WeatherDisplay:10.37,2013-05-26 09:09:00,
2013-05-26 04:14:00,50.0,31.1,30.50,North,0,0.0,0.0,48,0.00,OVC,,0.00,WeatherDisplay:10.37,2013-05-26 09:14:00,
2013-05-26 04:19:00,50.0,31.1,30.50,North,0,0.0,0.0,48,0.00,OVC,,0.00,WeatherDisplay:10.37,2013-05-26 09:19:00,
2013-05-26 04:24:00,50.0,31.1,30.50,North,0,0.0,0.0,48,0.00,OVC,,0.00,WeatherDisplay:10.37,2013-05-26 09:24:00,
2013-05-26 04:29:00,50.0,31.1,30.50,North,0,0.0,0.0,48,0.00,OVC,,0.00,WeatherDisplay:10.37,2013-05-26 09:29:00,
2013-05-26 04:34:00,49.8,30.9,30.50,North,0,0.0,0.0,48,0.00,OVC,,0.00,WeatherDisplay:10.37,2013-05-26 09:34:00,
2013-05-26 04:39:00,49.8,30.9,30.50,North,0,0.0,0.0,48,0.00,OVC,,0.00,WeatherDisplay:10.37,2013-05-26 09:39:00,
2013-05-26 04:44:00,49.8,30.9,30.50,North,0,0.0,0.0,48,0.00,OVC,,0.00,WeatherDisplay:10.37,2013-05-26 09:44:00,
2013-05-26 04:49:00,49.8,30.9,30.50,North,0,0.0,0.0,48,0.00,OVC,,0.00,WeatherDisplay:10.37,2013-05-26 09:49:00,
2013-05-26 04:54:00,49.6,30.2,30.50,North,0,0.0,0.0,47,0.00,OVC,,0.00,WeatherDisplay:10.37,2013-05-26 09:54:00,
2013-05-26 04:59:00,49.6,30.2,30.50,North,0,0.0,0.0,47,0.00,OVC,,0.00,WeatherDisplay:10.37,2013-05-26 09:59:00,
2013-05-26 05:04:00,49.6,30.2,30.50,North,0,0.0,0.0,47,0.00,OVC,,0.00,WeatherDisplay:10.37,2013-05-26 10:04:00,
2013-05-26 05:09:00,49.6,30.2,30.50,North,0,0.0,0.0,47,0.00,OVC,,0.00,WeatherDisplay:10.37,2013-05-26 10:09:00,
2013-05-26 05:14:00,49.6,30.2,30.50,North,0,0.0,0.0,47,0.00,OVC,,0.00,WeatherDisplay:10.37,2013-05-26 10:14:00,
2013-05-26 05:19:00,49.6,30.2,30.50,North,0,0.0,0.0,47,0.00,OVC,,0.00,WeatherDisplay:10.37,2013-05-26 10:19:00,
2013-05-26 05:24:00,49.6,30.2,30.50,North,0,0.0,0.0,47,0.00,OVC,,0.00,WeatherDisplay:10.37,2013-05-26 10:24:00,
2013-05-26 05:29:00,49.6,30.2,30.50,North,0,0.0,0.0,47,0.00,OVC,,0.00,WeatherDisplay:10.37,2013-05-26 10:29:00,
2013-05-26 05:34:00,49.6,29.7,30.50,North,0,0.0,0.0,46,0.00,OVC,,0.00,WeatherDisplay:10.37,2013-05-26 10:34:00,
2013-05-26 05:39:00,49.6,29.7,30.50,North,0,0.0,0.0,46,0.00,OVC,,0.00,WeatherDisplay:10.37,2013-05-26 10:39:00,
2013-05-26 05:44:00,49.8,29.3,30.47,North,0,0.0,0.0,45,0.00,OVC,,0.00,WeatherDisplay:10.37,2013-05-26 10:44:00,
2013-05-26 05:49:00,49.8,29.3,30.47,North,0,0.0,0.0,45,0.00,OVC,,0.00,WeatherDisplay:10.37,2013-05-26 10:49:00,
2013-05-26 05:54:00,49.8,28.8,30.47,North,0,0.0,0.0,44,0.00,OVC,,0.00,WeatherDisplay:10.37,2013-05-26 10:54:00,
2013-05-26 05:59:00,49.8,28.8,30.50,North,0,0.0,0.0,44,0.00,OVC,,0.00,WeatherDisplay:10.37,2013-05-26 10:59:00,
2013-05-26 06:04:00,49.8,28.2,30.50,North,0,0.0,0.0,43,0.00,OVC,,0.00,WeatherDisplay:10.37,2013-05-26 11:04:00,
2013-05-26 06:09:00,49.8,28.2,30.50,North,0,0.0,0.0,43,0.00,OVC,,0.00,WeatherDisplay:10.37,2013-05-26 11:09:00,
2013-05-26 06:14:00,49.8,27.6,30.50,North,0,0.0,0.0,42,0.00,OVC,,0.00,WeatherDisplay:10.37,2013-05-26 11:14:00,
2013-05-26 06:19:00,49.8,27.6,30.50,North,0,0.0,0.0,42,0.00,OVC,,0.00,WeatherDisplay:10.37,2013-05-26 11:19:00,
2013-05-26 06:24:00,49.8,27.6,30.50,North,0,0.0,0.0,42,0.00,OVC,,0.00,WeatherDisplay:10.37,2013-05-26 11:24:00,
2013-05-26 06:29:00,49.8,27.0,30.50,North,0,0.0,0.0,41,0.00,OVC,,0.00,WeatherDisplay:10.37,2013-05-26 11:29:00,
2013-05-26 06:34:00,49.8,27.0,30.50,North,0,0.0,0.0,41,0.00,OVC,,0.00,WeatherDisplay:10.37,2013-05-26 11:34:00,
2013-05-26 06:39:00,49.8,27.0,30.50,North,0,0.0,0.0,41,0.00,OVC,,0.00,WeatherDisplay:10.37,2013-05-26 11:39:00,
2013-05-26 06:44:00,49.8,27.0,30.50,North,0,0.0,0.0,41,0.00,OVC,,0.00,WeatherDisplay:10.37,2013-05-26 11:44:00,
2013-05-26 06:49:00,49.8,26.4,30.50,North,0,0.0,0.0,40,0.00,OVC,,0.00,WeatherDisplay:10.37,2013-05-26 11:49:00,
2013-05-26 06:54:00,50.0,26.6,30.50,North,0,0.0,0.0,40,0.00,OVC,,0.00,WeatherDisplay:10.37,2013-05-26 11:54:00,
2013-05-26 06:59:00,50.0,26.6,30.50,North,0,0.0,0.0,40,0.00,OVC,,0.00,WeatherDisplay:10.37,2013-05-26 11:59:00,
2013-05-26 07:04:00,50.0,26.0,30.50,North,0,0.0,0.0,39,0.00,OVC,,0.00,WeatherDisplay:10.37,2013-05-26 12:04:00,
2013-05-26 07:09:00,50.0,26.0,30.50,North,0,0.0,0.0,39,0.00,OVC,,0.00,WeatherDisplay:10.37,2013-05-26 12:09:00,
2013-05-26 07:14:00,49.8,26.4,30.50,North,0,0.0,0.0,40,0.00,OVC,,0.00,WeatherDisplay:10.37,2013-05-26 12:14:00,
2013-05-26 07:19:00,49.8,26.4,30.50,North,0,0.0,0.0,40,0.00,OVC,,0.00,WeatherDisplay:10.37,2013-05-26 12:19:00,
2013-05-26 07:24:00,49.6,26.3,30.50,North,0,0.0,0.0,40,0.00,OVC,,0.00,WeatherDisplay:10.37,2013-05-26 12:24:00,
2013-05-26 07:29:00,49.6,26.3,30.50,North,0,0.0,0.0,40,0.00,OVC,,0.00,WeatherDisplay:10.37,2013-05-26 12:29:00,
2013-05-26 07:34:00,49.5,26.1,30.50,North,0,0.0,0.0,40,0.00,OVC,,0.00,WeatherDisplay:10.37,2013-05-26 12:34:00,
2013-05-26 07:39:00,49.3,26.0,30.50,North,0,0.0,0.0,40,0.00,OVC,,0.00,WeatherDisplay:10.37,2013-05-26 12:39:00,
2013-05-26 07:44:00,49.3,26.0,30.50,North,0,0.0,0.0,40,0.00,OVC,,0.04,WeatherDisplay:10.37,2013-05-26 12:44:00,
2013-05-26 07:49:00,49.1,25.8,30.50,North,0,0.0,0.0,40,0.04,RA,OVC,0.04,WeatherDisplay:10.37,2013-05-26 12:49:00,
2013-05-26 07:54:00,48.9,26.2,30.50,North,0,0.0,0.0,41,0.04,RA,OVC,0.04,WeatherDisplay:10.37,2013-05-26 12:54:00,
2013-05-26 07:59:00,48.9,26.2,30.53,North,0,0.0,0.0,41,0.04,OVC,,0.04,WeatherDisplay:10.37,2013-05-26 12:59:00,
2013-05-26 08:04:00,48.9,26.8,30.53,North,0,0.0,0.0,42,0.04,OVC,,0.04,WeatherDisplay:10.37,2013-05-26 13:04:00,
2013-05-26 08:09:00,48.7,26.6,30.53,North,0,0.0,0.0,42,0.04,OVC,,0.04,WeatherDisplay:10.37,2013-05-26 13:09:00,
2013-05-26 08:14:00,48.7,27.2,30.53,North,0,0.0,0.0,43,0.08,RA,OVC,0.08,WeatherDisplay:10.37,2013-05-26 13:14:00,
2013-05-26 08:19:00,48.7,27.2,30.53,North,0,0.0,0.0,43,0.08,RA,OVC,0.08,WeatherDisplay:10.37,2013-05-26 13:19:00,
2013-05-26 08:24:00,48.7,27.8,30.53,North,0,0.0,0.0,44,0.08,OVC,,0.08,WeatherDisplay:10.37,2013-05-26 13:24:00,
2013-05-26 08:29:00,48.7,27.8,30.53,North,0,0.0,0.0,44,0.08,OVC,,0.08,WeatherDisplay:10.37,2013-05-26 13:29:00,
2013-05-26 08:34:00,48.7,28.3,30.53,North,0,0.0,0.0,45,0.08,OVC,,0.08,WeatherDisplay:10.37,2013-05-26 13:34:00,
2013-05-26 08:39:00,48.7,28.9,30.53,North,0,0.0,0.0,46,0.08,OVC,,0.08,WeatherDisplay:10.37,2013-05-26 13:39:00,
2013-05-26 08:44:00,48.9,29.0,30.53,North,0,0.0,0.0,46,0.12,RA,OVC,0.12,WeatherDisplay:10.37,2013-05-26 13:44:00,
2013-05-26 08:49:00,48.9,29.6,30.53,North,0,0.0,0.0,47,0.08,RA,OVC,0.12,WeatherDisplay:10.37,2013-05-26 13:49:00,
2013-05-26 08:54:00,48.9,29.6,30.53,North,0,0.0,0.0,47,0.08,OVC,,0.12,WeatherDisplay:10.37,2013-05-26 13:54:00,
2013-05-26 08:59:00,48.7,29.4,30.50,North,0,0.0,0.0,47,0.08,OVC,,0.12,WeatherDisplay:10.37,2013-05-26 13:59:00,
2013-05-26 09:04:00,48.7,29.4,30.50,North,0,0.0,0.0,47,0.08,OVC,,0.12,WeatherDisplay:10.37,2013-05-26 14:04:00,
2013-05-26 09:09:00,48.9,30.1,30.50,North,0,0.0,0.0,48,0.08,OVC,,0.12,WeatherDisplay:10.37,2013-05-26 14:09:00,
2013-05-26 09:14:00,48.9,30.1,30.50,North,0,0.0,0.0,48,0.04,OVC,,0.12,WeatherDisplay:10.37,2013-05-26 14:14:00,
2013-05-26 09:19:00,49.1,30.2,30.50,North,0,0.0,0.0,48,0.04,-RA,OVC,0.12,WeatherDisplay:10.37,2013-05-26 14:19:00,
2013-05-26 09:24:00,49.3,30.9,30.50,North,0,0.0,0.0,49,0.04,-RA,OVC,0.12,WeatherDisplay:10.37,2013-05-26 14:24:00,
2013-05-26 09:29:00,49.6,31.2,30.50,North,0,0.0,0.0,49,0.04,-RA,OVC,0.12,WeatherDisplay:10.37,2013-05-26 14:29:00,
2013-05-26 09:34:00,49.8,31.4,30.50,North,0,0.0,0.0,49,0.04,-RA,OVC,0.12,WeatherDisplay:10.37,2013-05-26 14:34:00,
2013-05-26 09:39:00,49.8,31.9,30.50,North,0,0.0,0.0,50,0.04,-RA,OVC,0.12,WeatherDisplay:10.37,2013-05-26 14:39:00,
2013-05-26 09:44:00,50.0,31.6,30.50,North,0,0.0,0.0,49,0.00,-RA,OVC,0.12,WeatherDisplay:10.37,2013-05-26 14:44:00,
2013-05-26 09:49:00,50.0,32.1,30.50,North,0,0.0,0.0,50,0.00,-RA,OVC,0.12,WeatherDisplay:10.37,2013-05-26 14:49:00,
2013-05-26 09:54:00,50.2,32.2,30.50,North,0,0.0,0.0,50,0.00,-RA,OVC,0.12,WeatherDisplay:10.37,2013-05-26 14:54:00,
2013-05-26 09:59:00,50.4,32.4,30.53,North,0,0.0,0.0,50,0.00,-RA,OVC,0.12,WeatherDisplay:10.37,2013-05-26 14:59:00,
2013-05-26 10:04:00,50.5,32.6,30.53,North,0,0.0,0.0,50,0.00,-RA,OVC,0.12,WeatherDisplay:10.37,2013-05-26 15:04:00,
2013-05-26 10:09:00,50.5,33.1,30.53,North,0,0.0,0.0,51,0.00,-RA,OVC,0.12,WeatherDisplay:10.37,2013-05-26 15:09:00,
2013-05-26 10:14:00,50.7,33.2,30.53,North,0,0.0,0.0,51,0.00,-RA,OVC,0.12,WeatherDisplay:10.37,2013-05-26 15:14:00,
2013-05-26 10:19:00,50.9,33.4,30.53,North,0,0.0,0.0,51,0.00,-RA,OVC,0.12,WeatherDisplay:10.37,2013-05-26 15:19:00,
2013-05-26 10:24:00,51.1,33.6,30.53,North,0,0.0,0.0,51,0.00,-RA,OVC,0.12,WeatherDisplay:10.37,2013-05-26 15:24:00,
2013-05-26 10:29:00,51.3,33.7,30.47,North,0,0.0,0.0,51,0.00,-RA,OVC,0.12,WeatherDisplay:10.37,2013-05-26 15:29:00,
2013-05-26 10:34:00,51.3,33.7,30.47,North,0,0.0,0.0,51,0.00,-RA,OVC,0.12,WeatherDisplay:10.37,2013-05-26 15:34:00,
2013-05-26 10:39:00,51.3,33.7,30.47,North,0,0.0,0.0,51,0.00,-RA,OVC,0.12,WeatherDisplay:10.37,2013-05-26 15:39:00,
2013-05-26 10:44:00,51.3,34.2,30.47,North,0,0.0,0.0,52,0.00,-RA,OVC,0.12,WeatherDisplay:10.37,2013-05-26 15:44:00,
2013-05-26 10:49:00,51.4,34.4,30.47,North,0,0.0,0.0,52,0.00,-RA,OVC,0.12,WeatherDisplay:10.37,2013-05-26 15:49:00,
2013-05-26 10:54:00,51.4,34.4,30.47,North,0,0.0,0.0,52,0.00,-RA,OVC,0.12,WeatherDisplay:10.37,2013-05-26 15:54:00,
2013-05-26 10:59:00,51.4,34.4,30.50,North,0,0.0,0.0,52,0.00,-RA,OVC,0.12,WeatherDisplay:10.37,2013-05-26 15:59:00,
2013-05-26 11:04:00,51.6,34.6,30.50,North,0,0.0,0.0,52,0.00,OVC,,0.12,WeatherDisplay:10.37,2013-05-26 16:04:00,
2013-05-26 11:09:00,51.6,34.6,30.50,North,0,0.0,0.0,52,0.00,OVC,,0.12,WeatherDisplay:10.37,2013-05-26 16:09:00,
2013-05-26 11:14:00,51.6,34.6,30.47,North,0,0.0,0.0,52,0.00,OVC,,0.12,WeatherDisplay:10.37,2013-05-26 16:14:00,
2013-05-26 11:19:00,51.8,34.2,30.47,North,0,0.0,0.0,51,0.00,OVC,,0.12,WeatherDisplay:10.37,2013-05-26 16:19:00,
2013-05-26 11:24:00,52.0,34.4,30.47,North,0,0.0,0.0,51,0.04,RA,OVC,0.16,WeatherDisplay:10.37,2013-05-26 16:24:00,
2013-05-26 11:29:00,52.0,34.4,30.47,North,0,0.0,0.0,51,0.04,RA,OVC,0.16,WeatherDisplay:10.37,2013-05-26 16:29:00,
2013-05-26 11:34:00,52.2,35.1,30.47,North,0,0.0,0.0,52,0.04,OVC,,0.16,WeatherDisplay:10.37,2013-05-26 16:34:00,
2013-05-26 11:39:00,52.3,35.2,30.47,North,0,0.0,0.0,52,0.04,OVC,,0.16,WeatherDisplay:10.37,2013-05-26 16:39:00,
2013-05-26 11:44:00,52.3,35.2,30.50,North,0,0.0,0.0,52,0.04,OVC,,0.16,WeatherDisplay:10.37,2013-05-26 16:44:00,
2013-05-26 11:49:00,52.3,35.2,30.50,North,0,0.0,0.0,52,0.04,OVC,,0.16,WeatherDisplay:10.37,2013-05-26 16:49:00,
2013-05-26 11:54:00,52.3,35.2,30.50,North,0,0.0,0.0,52,0.04,OVC,,0.16,WeatherDisplay:10.37,2013-05-26 16:54:00,
2013-05-26 11:59:00,52.3,35.2,30.50,North,0,0.0,0.0,52,0.08,RA,OVC,0.20,WeatherDisplay:10.37,2013-05-26 16:59:00,
2013-05-26 12:04:00,52.3,35.2,30.50,North,0,0.0,0.0,52,0.08,RA,OVC,0.20,WeatherDisplay:10.37,2013-05-26 17:04:00,
2013-05-26 12:09:00,52.2,35.1,30.50,North,0,0.0,0.0,52,0.08,OVC,,0.20,WeatherDisplay:10.37,2013-05-26 17:09:00,
2013-05-26 12:14:00,52.2,35.5,30.53,North,0,0.0,0.0,53,0.12,RA,OVC,0.28,WeatherDisplay:10.37,2013-05-26 17:14:00,
2013-05-26 12:19:00,52.2,35.1,30.53,North,0,0.0,0.0,52,0.20,RA,OVC,0.31,WeatherDisplay:10.37,2013-05-26 17:19:00,
2013-05-26 12:24:00,52.0,35.4,30.53,North,0,0.0,0.0,53,0.20,RA,OVC,0.35,WeatherDisplay:10.37,2013-05-26 17:24:00,
2013-05-26 12:29:00,52.0,35.4,30.50,North,0,0.0,0.0,53,0.24,RA,OVC,0.43,WeatherDisplay:10.37,2013-05-26 17:29:00,
2013-05-26 12:34:00,52.2,35.5,30.50,North,0,0.0,0.0,53,0.28,RA,OVC,0.43,WeatherDisplay:10.37,2013-05-26 17:34:00,
2013-05-26 12:40:00,52.2,36.0,30.50,North,0,0.0,0.0,54,0.28,RA,OVC,0.43,WeatherDisplay:10.37,2013-05-26 17:40:00,
2013-05-26 12:45:00,52.2,36.0,30.50,North,0,0.0,0.0,54,0.28,OVC,,0.43,WeatherDisplay:10.37,2013-05-26 17:45:00,
2013-05-26 12:50:00,52.2,36.0,30.50,North,0,0.0,0.0,54,0.28,OVC,,0.43,WeatherDisplay:10.37,2013-05-26 17:50:00,
2013-05-26 12:55:00,52.3,36.2,30.50,North,0,0.0,0.0,54,0.28,OVC,,0.43,WeatherDisplay:10.37,2013-05-26 17:55:00,
2013-05-26 13:00:00,52.3,36.6,30.47,North,0,0.0,0.0,55,0.24,OVC,,0.43,WeatherDisplay:10.37,2013-05-26 18:00:00,
2013-05-26 13:05:00,52.5,36.8,30.47,North,0,0.0,0.0,55,0.24,-RA,OVC,0.43,WeatherDisplay:10.37,2013-05-26 18:05:00,
2013-05-26 13:10:00,52.7,37.0,30.47,North,0,0.0,0.0,55,0.24,-RA,OVC,0.43,WeatherDisplay:10.37,2013-05-26 18:10:00,
2013-05-26 13:15:00,53.1,37.8,30.47,North,0,0.0,0.0,56,0.16,-RA,OVC,0.43,WeatherDisplay:10.37,2013-05-26 18:15:00,
2013-05-26 13:20:00,53.2,37.9,30.47,North,0,0.0,0.0,56,0.12,-RA,OVC,0.43,WeatherDisplay:10.37,2013-05-26 18:20:00,
2013-05-26 13:25:00,53.4,38.6,30.47,North,0,0.0,0.0,57,0.08,-RA,OVC,0.43,WeatherDisplay:10.37,2013-05-26 18:25:00,
2013-05-26 13:30:00,53.6,38.7,30.47,North,0,0.0,0.0,57,0.04,-RA,OVC,0.43,WeatherDisplay:10.37,2013-05-26 18:30:00,
2013-05-26 13:35:00,54.0,39.1,30.47,North,0,0.0,0.0,57,0.00,-RA,OVC,0.43,WeatherDisplay:10.37,2013-05-26 18:35:00,
2013-05-26 13:40:00,54.0,39.1,30.47,North,0,0.0,0.0,57,0.00,-RA,OVC,0.43,WeatherDisplay:10.37,2013-05-26 18:40:00,
2013-05-26 13:45:00,54.0,39.1,30.47,North,0,0.0,0.0,57,0.00,-RA,OVC,0.43,WeatherDisplay:10.37,2013-05-26 18:45:00,
2013-05-26 13:50:00,54.0,39.1,30.47,North,0,0.0,0.0,57,0.00,-RA,OVC,0.43,WeatherDisplay:10.37,2013-05-26 18:50:00,
2013-05-26 13:55:00,54.1,39.7,30.47,North,0,0.0,0.0,58,0.00,-RA,OVC,0.43,WeatherDisplay:10.37,2013-05-26 18:55:00,
2013-05-26 14:00:00,54.3,39.8,30.47,North,0,0.0,0.0,58,0.00,-RA,OVC,0.43,WeatherDisplay:10.37,2013-05-26 19:00:00,
2013-05-26 14:05:00,54.5,40.0,30.47,North,0,0.0,0.0,58,0.00,OVC,,0.43,WeatherDisplay:10.37,2013-05-26 19:05:00,
2013-05-26 14:10:00,54.9,40.8,30.47,North,0,0.0,0.0,59,0.00,OVC,,0.43,WeatherDisplay:10.37,2013-05-26 19:10:00,
2013-05-26 14:15:00,55.6,41.5,30.44,North,0,0.0,0.0,59,0.00,OVC,,0.43,WeatherDisplay:10.37,2013-05-26 19:15:00,
2013-05-26 14:20:00,55.9,42.2,30.44,North,0,0.0,0.0,60,0.00,OVC,,0.43,WeatherDisplay:10.37,2013-05-26 19:20:00,
2013-05-26 14:25:00,56.3,42.6,30.44,North,0,0.0,0.0,60,0.00,OVC,,0.43,WeatherDisplay:10.37,2013-05-26 19:25:00,
2013-05-26 14:30:00,56.7,42.9,30.41,North,0,0.0,0.0,60,0.00,OVC,,0.43,WeatherDisplay:10.37,2013-05-26 19:30:00,
2013-05-26 14:35:00,56.7,42.9,30.41,North,0,0.0,0.0,60,0.00,OVC,,0.43,WeatherDisplay:10.37,2013-05-26 19:35:00,
2013-05-26 14:40:00,56.7,42.9,30.41,North,0,0.0,0.0,60,0.00,OVC,,0.43,WeatherDisplay:10.37,2013-05-26 19:40:00,
2013-05-26 14:45:00,56.7,42.9,30.41,North,0,0.0,0.0,60,0.00,OVC,,0.43,WeatherDisplay:10.37,2013-05-26 19:45:00,
2013-05-26 14:50:00,56.7,42.9,30.41,North,0,0.0,0.0,60,0.00,OVC,,0.43,WeatherDisplay:10.37,2013-05-26 19:50:00,
2013-05-26 14:55:00,56.7,42.9,30.41,North,0,0.0,0.0,60,0.00,OVC,,0.43,WeatherDisplay:10.37,2013-05-26 19:55:00,
2013-05-26 15:00:00,56.5,42.8,30.44,North,0,0.0,0.0,60,0.00,OVC,,0.43,WeatherDisplay:10.37,2013-05-26 20:00:00,
2013-05-26 15:05:00,56.5,42.8,30.44,North,0,0.0,0.0,60,0.00,OVC,,0.43,WeatherDisplay:10.37,2013-05-26 20:05:00,
2013-05-26 15:10:00,56.5,42.8,30.44,North,0,0.0,0.0,60,0.00,OVC,,0.43,WeatherDisplay:10.37,2013-05-26 20:10:00,
2013-05-26 15:15:00,56.3,42.6,30.47,North,0,0.0,0.0,60,0.00,OVC,,0.43,WeatherDisplay:10.37,2013-05-26 20:15:00,
2013-05-26 15:20:00,56.1,42.4,30.47,North,0,0.0,0.0,60,0.00,OVC,,0.43,WeatherDisplay:10.37,2013-05-26 20:20:00,
2013-05-26 15:25:00,56.1,42.4,30.47,North,0,0.0,0.0,60,0.00,OVC,,0.43,WeatherDisplay:10.37,2013-05-26 20:25:00,
2013-05-26 15:30:00,55.9,42.2,30.44,North,0,0.0,0.0,60,0.00,OVC,,0.43,WeatherDisplay:10.37,2013-05-26 20:30:00,
2013-05-26 15:35:00,55.8,42.1,30.44,North,0,0.0,0.0,60,0.00,OVC,,0.43,WeatherDisplay:10.37,2013-05-26 20:35:00,
2013-05-26 15:40:00,55.6,41.9,30.44,North,0,0.0,0.0,60,0.08,RA,OVC,0.51,WeatherDisplay:10.37,2013-05-26 20:40:00,
2013-05-26 15:45:00,55.6,41.9,30.44,North,0,0.0,0.0,60,0.12,RA,OVC,0.55,WeatherDisplay:10.37,2013-05-26 20:45:00,
2013-05-26 15:50:00,55.4,41.7,30.44,North,0,0.0,0.0,60,0.12,RA,OVC,0.55,WeatherDisplay:10.37,2013-05-26 20:50:00,
2013-05-26 15:55:00,55.4,41.7,30.44,North,0,0.0,0.0,60,0.16,RA,OVC,0.59,WeatherDisplay:10.37,2013-05-26 20:55:00,
2013-05-26 16:00:00,55.2,41.6,30.44,North,0,0.0,0.0,60,0.16,RA,OVC,0.59,WeatherDisplay:10.37,2013-05-26 21:00:00,
2013-05-26 16:05:00,55.2,41.6,30.44,North,0,0.0,0.0,60,0.20,RA,OVC,0.63,WeatherDisplay:10.37,2013-05-26 21:05:00,
2013-05-26 16:10:00,55.2,42.0,30.44,North,0,0.0,0.0,61,0.20,RA,OVC,0.63,WeatherDisplay:10.37,2013-05-26 21:10:00,
2013-05-26 16:15:00,55.2,42.0,30.44,North,0,0.0,0.0,61,0.24,RA,OVC,0.71,WeatherDisplay:10.37,2013-05-26 21:15:00,
2013-05-26 16:20:00,55.2,42.0,30.44,North,0,0.0,0.0,61,0.28,RA,OVC,0.71,WeatherDisplay:10.37,2013-05-26 21:20:00,
2013-05-26 16:25:00,55.2,42.0,30.44,North,0,0.0,0.0,61,0.28,RA,OVC,0.71,WeatherDisplay:10.37,2013-05-26 21:25:00,
2013-05-26 16:30:00,55.4,42.2,30.41,North,0,0.0,0.0,61,0.31,RA,OVC,0.75,WeatherDisplay:10.37,2013-05-26 21:30:00,
2013-05-26 16:35:00,55.6,42.3,30.41,North,0,0.0,0.0,61,0.31, +RA,OVC,0.79,WeatherDisplay:10.37,2013-05-26 21:35:00,
2013-05-26 16:40:00,55.8,42.9,30.41,North,0,0.0,0.0,62,0.28, +RA,OVC,0.79,WeatherDisplay:10.37,2013-05-26 21:40:00,
2013-05-26 16:45:00,55.9,43.1,30.38,North,0,0.0,0.0,62,0.28, +RA,OVC,0.83,WeatherDisplay:10.37,2013-05-26 21:45:00,
2013-05-26 16:50:00,55.9,43.1,30.38,North,0,0.0,0.0,62,0.28, +RA,OVC,0.87,WeatherDisplay:10.37,2013-05-26 21:50:00,
2013-05-26 16:55:00,56.1,43.3,30.38,North,0,0.0,0.0,62,0.28, +RA,OVC,0.87,WeatherDisplay:10.37,2013-05-26 21:55:00,
2013-05-26 17:00:00,56.3,43.4,30.38,North,0,0.0,0.0,62,0.28, +RA,OVC,0.87,WeatherDisplay:10.37,2013-05-26 22:00:00,
2013-05-26 17:05:00,56.3,43.9,30.38,North,0,0.0,0.0,63,0.24,OVC,,0.87,WeatherDisplay:10.37,2013-05-26 22:05:00,
2013-05-26 17:10:00,56.3,43.4,30.38,North,0,0.0,0.0,62,0.24,OVC,,0.87,WeatherDisplay:10.37,2013-05-26 22:10:00,
2013-05-26 17:15:00,56.3,43.9,30.41,North,0,0.0,0.0,63,0.28,RA,OVC,0.94,WeatherDisplay:10.37,2013-05-26 22:15:00,
2013-05-26 17:20:00,56.5,44.0,30.41,North,0,0.0,0.0,63,0.35,RA,OVC,1.10,WeatherDisplay:10.37,2013-05-26 22:20:00,
2013-05-26 17:25:00,56.5,44.0,30.41,North,0,0.0,0.0,63,0.51,RA,OVC,1.22,WeatherDisplay:10.37,2013-05-26 22:25:00,
2013-05-26 17:30:00,56.7,44.2,30.38,North,0,0.0,0.0,63,0.59,RA,OVC,1.34,WeatherDisplay:10.37,2013-05-26 22:30:00,
2013-05-26 17:35:00,56.7,44.6,30.38,North,0,0.0,0.0,64,0.67,RA,OVC,1.42,WeatherDisplay:10.37,2013-05-26 22:35:00,
2013-05-26 17:40:00,56.7,44.6,30.38,North,0,0.0,0.0,64,0.71,RA,OVC,1.57,WeatherDisplay:10.37,2013-05-26 22:40:00,
2013-05-26 17:45:00,56.8,44.8,30.38,North,0,0.0,0.0,64,0.91,RA,OVC,1.77,WeatherDisplay:10.37,2013-05-26 22:45:00,
2013-05-26 17:50:00,56.8,44.8,30.38,North,0,0.0,0.0,64,1.10,RA,OVC,1.97,WeatherDisplay:10.37,2013-05-26 22:50:00,
2013-05-26 17:55:00,57.0,45.4,30.38,North,0,0.0,0.0,65,1.18,RA,OVC,2.09,WeatherDisplay:10.37,2013-05-26 22:55:00,
2013-05-26 18:00:00,57.2,45.1,30.38,North,0,0.0,0.0,64,1.26,RA,OVC,2.13,WeatherDisplay:10.37,2013-05-26 23:00:00,
2013-05-26 18:05:00,57.2,45.1,30.38,North,0,0.0,0.0,64,1.34,RA,OVC,2.20,WeatherDisplay:10.37,2013-05-26 23:05:00,
2013-05-26 18:10:00,57.2,45.1,30.38,North,0,0.0,0.0,64,1.42,RA,OVC,2.28,WeatherDisplay:10.37,2013-05-26 23:10:00,
2013-05-26 18:15:00,57.2,45.1,30.38,North,0,0.0,0.0,64,1.42,RA,OVC,2.36,WeatherDisplay:10.37,2013-05-26 23:15:00,
2013-05-26 18:20:00,57.2,45.5,30.38,North,0,0.0,0.0,65,1.30,RA,OVC,2.36,WeatherDisplay:10.37,2013-05-26 23:20:00,
2013-05-26 18:25:00,57.4,45.7,30.38,North,0,0.0,0.0,65,1.14,OVC,,2.36,WeatherDisplay:10.37,2013-05-26 23:25:00,
2013-05-26 18:30:00,57.2,45.5,30.38,North,0,0.0,0.0,65,1.02,OVC,,2.36,WeatherDisplay:10.37,2013-05-26 23:30:00,
2013-05-26 18:35:00,57.2,45.5,30.38,North,0,0.0,0.0,65,0.94,OVC,,2.36,WeatherDisplay:10.37,2013-05-26 23:35:00,
2013-05-26 18:40:00,57.0,45.4,30.38,North,0,0.0,0.0,65,0.87,OVC,,2.36,WeatherDisplay:10.37,2013-05-26 23:40:00,
2013-05-26 18:45:00,57.0,45.4,30.38,North,0,0.0,0.0,65,0.63,OVC,,2.36,WeatherDisplay:10.37,2013-05-26 23:45:00,
2013-05-26 18:50:00,57.0,45.4,30.38,North,0,0.0,0.0,65,0.43,OVC,,2.36,WeatherDisplay:10.37,2013-05-26 23:50:00,
2013-05-26 18:55:00,57.0,45.8,30.38,North,0,0.0,0.0,66,0.31,OVC,,2.36,WeatherDisplay:10.37,2013-05-26 23:55:00,
2013-05-26 19:00:00,57.0,45.8,30.35,North,0,0.0,0.0,66,0.28,RA,OVC,2.40,WeatherDisplay:10.37,2013-05-27 00:00:00,
2013-05-26 19:05:00,57.0,45.8,30.35,North,0,0.0,0.0,66,0.20,-RA,OVC,2.40,WeatherDisplay:10.37,2013-05-27 00:05:00,
2013-05-26 19:10:00,56.8,45.6,30.35,North,0,0.0,0.0,66,0.12,-RA,OVC,2.40,WeatherDisplay:10.37,2013-05-27 00:10:00,
2013-05-26 19:15:00,56.8,45.6,30.35,North,0,0.0,0.0,66,0.04,-RA,OVC,2.40,WeatherDisplay:10.37,2013-05-27 00:15:00,
2013-05-26 19:20:00,56.8,45.6,30.35,North,0,0.0,0.0,66,0.04,-RA,OVC,2.40,WeatherDisplay:10.37,2013-05-27 00:20:00,
2013-05-26 19:25:00,56.8,45.6,30.35,North,0,0.0,0.0,66,0.04,-RA,OVC,2.40,WeatherDisplay:10.37,2013-05-27 00:25:00,
2013-05-26 19:30:00,56.8,45.6,30.35,North,0,0.0,0.0,66,0.04,-RA,OVC,2.40,WeatherDisplay:10.37,2013-05-27 00:30:00,
2013-05-26 19:35:00,56.8,45.6,30.35,North,0,0.0,0.0,66,0.04,-RA,OVC,2.40,WeatherDisplay:10.37,2013-05-27 00:35:00,
2013-05-26 19:40:00,56.8,45.6,30.35,North,0,0.0,0.0,66,0.04,-RA,OVC,2.40,WeatherDisplay:10.37,2013-05-27 00:40:00,
2013-05-26 19:45:00,57.0,46.2,30.35,North,0,0.0,0.0,67,0.04,-RA,OVC,2.40,WeatherDisplay:10.37,2013-05-27 00:45:00,
2013-05-26 19:50:00,57.0,46.2,30.35,North,0,0.0,0.0,67,0.04,-RA,OVC,2.40,WeatherDisplay:10.37,2013-05-27 00:50:00,
2013-05-26 19:55:00,57.0,46.2,30.35,North,0,0.0,0.0,67,0.04,-RA,OVC,2.40,WeatherDisplay:10.37,2013-05-27 00:55:00,
2013-05-26 20:00:00,57.0,46.2,30.35,North,0,0.0,0.0,67,0.00,-RA,OVC,2.40,WeatherDisplay:10.37,2013-05-27 01:00:00,
2013-05-26 20:05:00,57.0,46.2,30.35,North,0,0.0,0.0,67,0.00,OVC,,2.40,WeatherDisplay:10.37,2013-05-27 01:05:00,
2013-05-26 20:10:00,57.2,46.3,30.35,North,0,0.0,0.0,67,0.00,OVC,,2.40,WeatherDisplay:10.37,2013-05-27 01:10:00,
2013-05-26 20:15:00,57.2,46.3,30.35,North,0,0.0,0.0,67,0.00,OVC,,2.40,WeatherDisplay:10.37,2013-05-27 01:15:00,
2013-05-26 20:20:00,57.2,46.3,30.35,North,0,0.0,0.0,67,0.00,OVC,,2.40,WeatherDisplay:10.37,2013-05-27 01:20:00,
2013-05-26 20:25:00,57.2,46.3,30.35,North,0,0.0,0.0,67,0.00,OVC,,2.40,WeatherDisplay:10.37,2013-05-27 01:25:00,
2013-05-26 20:30:00,57.2,46.3,30.35,North,0,0.0,0.0,67,0.00,OVC,,2.40,WeatherDisplay:10.37,2013-05-27 01:30:00,
2013-05-26 20:35:00,57.2,46.3,30.35,North,0,0.0,0.0,67,0.00,OVC,,2.40,WeatherDisplay:10.37,2013-05-27 01:35:00,
2013-05-26 20:40:00,57.2,46.3,30.35,North,0,0.0,0.0,67,0.04,RA,OVC,2.44,WeatherDisplay:10.37,2013-05-27 01:40:00,
2013-05-26 20:45:00,57.4,46.5,30.35,North,0,0.0,0.0,67,0.04,RA,OVC,2.44,WeatherDisplay:10.37,2013-05-27 01:45:00,
2013-05-26 20:50:00,57.4,46.5,30.35,North,0,0.0,0.0,67,0.08,RA,OVC,2.48,WeatherDisplay:10.37,2013-05-27 01:50:00,
2013-05-26 20:55:00,57.4,46.9,30.35,North,0,0.0,0.0,68,0.12,RA,OVC,2.52,WeatherDisplay:10.37,2013-05-27 01:55:00,
2013-05-26 21:00:00,57.6,47.1,30.35,North,0,0.0,0.0,68,0.12,RA,OVC,2.52,WeatherDisplay:10.37,2013-05-27 02:00:00,
2013-05-26 21:05:00,57.7,47.2,30.35,North,0,0.0,0.0,68,0.12,OVC,,2.52,WeatherDisplay:10.37,2013-05-27 02:05:00,
2013-05-26 21:10:00,57.9,47.4,30.35,North,0,0.0,0.0,68,0.12,OVC,,2.52,WeatherDisplay:10.37,2013-05-27 02:10:00,
2013-05-26 21:15:00,58.1,48.0,30.35,North,0,0.0,0.0,69,0.12,OVC,,2.52,WeatherDisplay:10.37,2013-05-27 02:15:00,
2013-05-26 21:20:00,58.3,48.2,30.35,North,0,0.0,0.0,69,0.16,RA,OVC,2.56,WeatherDisplay:10.37,2013-05-27 02:20:00,
2013-05-26 21:25:00,58.3,48.2,30.35,North,0,0.0,0.0,69,0.16,RA,OVC,2.56,WeatherDisplay:10.37,2013-05-27 02:25:00,
2013-05-26 21:30:00,58.5,48.3,30.35,North,0,0.0,0.0,69,0.16,OVC,,2.56,WeatherDisplay:10.37,2013-05-27 02:30:00,
2013-05-26 21:36:00,58.5,47.9,30.35,North,0,0.0,0.0,68,0.16,OVC,,2.56,WeatherDisplay:10.37,2013-05-27 02:36:00,
2013-05-26 21:41:00,58.5,47.9,30.35,North,0,0.0,0.0,68,0.12,OVC,,2.56,WeatherDisplay:10.37,2013-05-27 02:41:00,
2013-05-26 21:46:00,58.5,47.9,30.35,North,0,0.0,0.0,68,0.12,OVC,,2.56,WeatherDisplay:10.37,2013-05-27 02:46:00,
2013-05-26 21:51:00,58.5,47.9,30.35,North,0,0.0,0.0,68,0.08,OVC,,2.56,WeatherDisplay:10.37,2013-05-27 02:51:00,
2013-05-26 21:56:00,58.5,47.9,30.35,North,0,0.0,0.0,68,0.04,OVC,,2.60,WeatherDisplay:10.37,2013-05-27 02:56:00,
2013-05-26 22:01:00,58.5,47.9,30.35,North,0,0.0,0.0,68,0.08,RA,OVC,2.60,WeatherDisplay:10.37,2013-05-27 03:01:00,
2013-05-26 22:06:00,58.5,48.3,30.35,North,0,0.0,0.0,69,0.08,RA,OVC,2.60,WeatherDisplay:10.37,2013-05-27 03:06:00,
2013-05-26 22:11:00,58.5,48.3,30.35,North,0,0.0,0.0,69,0.08,BKN,OVC,2.60,WeatherDisplay:10.37,2013-05-27 03:11:00,
2013-05-26 22:16:00,58.5,48.3,30.35,North,0,0.0,0.0,69,0.08,BKN,OVC,2.60,WeatherDisplay:10.37,2013-05-27 03:16:00,
2013-05-26 22:21:00,58.5,48.3,30.35,North,0,0.0,0.0,69,0.04,BKN,OVC,2.60,WeatherDisplay:10.37,2013-05-27 03:21:00,
2013-05-26 22:26:00,58.5,48.3,30.35,North,0,0.0,0.0,69,0.04,BKN,OVC,2.60,WeatherDisplay:10.37,2013-05-27 03:26:00,
2013-05-26 22:31:00,58.5,48.3,30.35,North,0,0.0,0.0,69,0.04,BKN,OVC,2.60,WeatherDisplay:10.37,2013-05-27 03:31:00,
2013-05-26 22:36:00,58.5,48.3,30.35,North,0,0.0,0.0,69,0.04,BKN,OVC,2.60,WeatherDisplay:10.37,2013-05-27 03:36:00,
2013-05-26 22:41:00,58.5,48.3,30.35,North,0,0.0,0.0,69,0.04,BKN,OVC,2.60,WeatherDisplay:10.37,2013-05-27 03:41:00,
2013-05-26 22:46:00,58.5,48.3,30.35,North,0,0.0,0.0,69,0.04,BKN,OVC,2.60,WeatherDisplay:10.37,2013-05-27 03:46:00,
2013-05-26 22:51:00,58.3,48.2,30.35,North,0,0.0,0.0,69,0.04,BKN,OVC,2.60,WeatherDisplay:10.37,2013-05-27 03:51:00,
2013-05-26 22:56:00,58.3,48.2,30.35,North,0,0.0,0.0,69,0.00,BKN,OVC,2.60,WeatherDisplay:10.37,2013-05-27 03:56:00,
2013-05-26 23:01:00,58.3,48.2,30.35,North,0,0.0,0.0,69,0.00,BKN,OVC,2.60,WeatherDisplay:10.37,2013-05-27 04:01:00,
2013-05-26 23:02:00,58.3,48.2,30.35,North,0,0.0,0.0,69,0.00,BKN,OVC,2.60,WeatherDisplay:10.37,2013-05-27 04:02:00,
2013-05-26 23:07:00,58.3,48.2,30.35,North,0,0.0,0.0,69,0.00,BKN,OVC,2.60,WeatherDisplay:10.37,2013-05-27 04:07:00,
2013-05-26 23:12:00,58.3,48.2,30.35,North,0,0.0,0.0,69,0.00,BKN,OVC,2.60,WeatherDisplay:10.37,2013-05-27 04:12:00,
2013-05-26 23:17:00,58.1,48.0,30.35,North,0,0.0,0.0,69,0.00,OVC,,2.60,WeatherDisplay:10.37,2013-05-27 04:17:00,
2013-05-26 23:22:00,57.9,47.8,30.35,North,0,0.0,0.0,69,0.00,OVC,,2.60,WeatherDisplay:10.37,2013-05-27 04:22:00,
2013-05-26 23:27:00,57.7,47.6,30.35,North,0,0.0,0.0,69,0.00,OVC,,2.60,WeatherDisplay:10.37,2013-05-27 04:27:00,
2013-05-26 23:32:00,57.6,47.5,30.32,North,0,0.0,0.0,69,0.00,OVC,,2.60,WeatherDisplay:10.37,2013-05-27 04:32:00,
2013-05-26 23:37:00,57.6,47.5,30.32,North,0,0.0,0.0,69,0.00,OVC,,2.60,WeatherDisplay:10.37,2013-05-27 04:37:00,
2013-05-26 23:42:00,57.6,47.5,30.32,North,0,0.0,0.0,69,0.00,OVC,,2.60,WeatherDisplay:10.37,2013-05-27 04:42:00,
2013-05-26 23:47:00,57.6,47.5,30.32,North,0,0.0,0.0,69,0.00,OVC,,2.60,WeatherDisplay:10.37,2013-05-27 04:47:00,
2013-05-26 23:52:00,57.6,47.8,30.32,North,0,0.0,0.0,70,0.00,OVC,,2.60,WeatherDisplay:10.37,2013-05-27 04:52:00,
2013-05-26 23:57:00,57.6,47.8,30.32,North,0,0.0,0.0,70,0.00,OVC,,2.60,WeatherDisplay:10.37,2013-05-27 04:57:00,